Change the Weather History Date:

Saturday, January 5, 2013

  Actual Average Record
Temperature  
Mean Temperature 26 °F 25 °F  
Max Temperature 41 °F 35 °F 68 °F (2012)
Min Temperature 10 °F 14 °F -22 °F (1924)
Degree Days  
Heating Degree Days 39 40  
Month to date heating degree days 215 200  
Since 1 July heating degree days 2540 2719  
Cooling Degree Days 0 0  
Month to date cooling degree days 0 0  
Year to date cooling degree days 0 0  
Moisture  
Dew Point 17 °F    
Average Humidity 69    
Maximum Humidity 84    
Minimum Humidity 54    
Precipitation  
Precipitation 0.00 in 0.02 in 0.80 in (1932)
Month to date precipitation T 0.08  
Year to date precipitation T 0.08  
Sea Level Pressure  
Sea Level Pressure 30.16 in    
Wind  
Wind Speed 12 mph (West)    
Max Wind Speed 23 mph    
Max Gust Speed 29 mph    
Visibility 10 miles    
Events      
T = Trace of Precipitation, MM = Missing Value Source: NWS Daily Summary

Daily Weather History Graph

Daily Weather History Graph

Search for Another Location

Airport or City:

Trip Planner

Search our weather history database for the weather conditions in past years. The results will help you decide how hot, cold, wet, or windy it might be!

Date:

Astronomy

Jan. 05, 2013 Rise Set
Actual Time 7:58 AM CST 5:19 PM CST
Civil Twilight 7:27 AM CST 5:50 PM CST
Nautical Twilight 6:53 AM CST 6:24 PM CST
Astronomical Twilight 6:19 AM CST 6:58 PM CST
Moon 1:04 AM CST (1/5) 12:11 PM CST (1/5)
Length of Visible Light 10h 23m
Length of Day
9h 21m
Last Quarter, 44% of the Moon is Illuminated
Jan 5
Last Quarter
Jan 11
New
Jan 18
First Quarter
Jan 26
Full
Feb 3
Last Quarter

Hourly Weather History & Observations

Time (CST) Temp. Windchill Dew Point Humidity Pressure Visibility Wind Dir Wind Speed Gust Speed Precip Events Conditions
12:53 AM 19.0 °F 9.0 °F 12.9 °F 77% 30.13 in 10.0 mi SSW 8.1 mph - N/A   Clear
1:53 AM 19.0 °F 7.5 °F 12.9 °F 77% 30.10 in 10.0 mi SSW 10.4 mph - N/A   Clear
2:53 AM 18.0 °F 5.4 °F 12.0 °F 78% 30.09 in 10.0 mi WSW 11.5 mph - N/A   Clear
3:53 AM 16.0 °F 6.3 °F 10.9 °F 81% 30.10 in 10.0 mi WSW 6.9 mph - N/A   Clear
4:53 AM 15.1 °F 4.2 °F 10.0 °F 80% 30.09 in 10.0 mi SSW 8.1 mph - N/A   Clear
5:53 AM 12.0 °F 0.5 °F 8.1 °F 84% 30.09 in 10.0 mi SSW 8.1 mph - N/A   Clear
6:53 AM 10.9 °F -1.8 °F 7.0 °F 84% 30.10 in 10.0 mi WSW 9.2 mph - N/A   Clear
7:53 AM 10.9 °F -0.8 °F 7.0 °F 84% 30.12 in 10.0 mi West 8.1 mph - N/A   Clear
8:53 AM 14.0 °F 1.2 °F 9.0 °F 80% 30.13 in 10.0 mi West 10.4 mph - N/A   Clear
9:53 AM 17.1 °F 4.3 °F 10.0 °F 74% 30.13 in 8.0 mi West 11.5 mph - N/A   Clear
10:53 AM 24.1 °F 13.1 °F 15.1 °F 69% 30.12 in 10.0 mi WNW 11.5 mph - N/A   Clear
11:53 AM 32.0 °F 23.0 °F 19.9 °F 61% 30.12 in 10.0 mi WNW 11.5 mph - N/A   Clear
12:53 PM 36.0 °F 29.0 °F 24.1 °F 62% 30.10 in 10.0 mi WNW 9.2 mph - N/A   Clear
1:53 PM 39.0 °F 30.6 °F 27.0 °F 62% 30.09 in 10.0 mi NW 15.0 mph - N/A   Clear
2:53 PM 41.0 °F 33.5 °F 27.0 °F 57% 30.09 in 10.0 mi WNW 13.8 mph - N/A   Clear
3:53 PM 39.9 °F 32.5 °F 28.0 °F 63% 30.12 in 10.0 mi WNW 12.7 mph - N/A   Clear
4:53 PM 37.9 °F 29.6 °F 27.0 °F 65% 30.15 in 10.0 mi WNW 13.8 mph - N/A   Clear
5:53 PM 36.0 °F 26.3 °F 25.0 °F 64% 30.19 in 10.0 mi WNW 16.1 mph - N/A   Clear
6:53 PM 34.0 °F 24.6 °F 24.1 °F 67% 30.22 in 10.0 mi WNW 13.8 mph - N/A   Clear
7:53 PM 32.0 °F 20.5 °F 21.9 °F 66% 30.25 in 10.0 mi NW 18.4 mph - N/A   Clear
8:53 PM 32.0 °F 19.5 °F 18.0 °F 56% 30.27 in 10.0 mi NW 21.9 mph 28.8 mph N/A   Clear
9:53 PM 28.0 °F 17.0 °F 18.0 °F 66% 30.29 in 10.0 mi NW 13.8 mph - N/A   Clear
10:53 PM 26.1 °F 15.6 °F 18.0 °F 71% 30.30 in 10.0 mi NNW 11.5 mph - N/A   Clear
11:53 PM 23.0 °F 14.7 °F 16.0 °F 74% 30.31 in 10.0 mi NW 6.9 mph - N/A   Clear